Location: Acheville
(50.3840°N, 2.8827°E)
Time: 19:20:54
(UTC+00:00)

SL-8 R/B - Pass Details

Date: 24 October 2021
Orbit: 656 x 667 km, 48.4° (Epoch: 07 December)

Event Time Altitude Azimuth Distance (km) Brightness Sun altitude
Rises 19:27:59 0° 272° (W) 2,987 8.3 -27.5°
Reaches altitude 10° 19:30:20 10° 270° (W) 2,076 7.1 -27.8°
Enters shadow 19:34:00 50° 248° (WSW) 848 4.4 -28.4°
